Location: Fort Worth, Tx
(32.7431°N, 97.3695°W)
Time: 05:08:47
(UTC-05:00)

Tiros 1 - Pass Details

Date: 18 November 2024
Orbit: 622 x 653 km, 48.4° (Epoch: 05 December)

Event Time Altitude Azimuth Distance (km) Brightness Sun altitude
Rises 19:36:42 0° 311° (NW) 2,953 11.1 -14.8°
Reaches altitude 10° 19:40:35 10° 343° (NNW) 2,050 9.8 -15.6°
Maximum altitude 19:42:23 12° 5° (N) 1,924 9.4 -16.0°
Enters shadow 19:43:37 11° 21° (NNE) 1,986 9.3 -16.3°
